Regional Weather Roundup
Issued by NWS

Home | Current Version | Previous Version | Text Only | Print | Product List | Glossary Off
Versions: 1 2 3 4 5 6 7 8 9 10 11 12 13 14 15 16 17 18 19 20 21 22 23 24 25 26 27 28 29 30 31 32 33 34 35 36 37 38 39 40 41 42 43 44 45 46 47 48 49 50

000
ASUS43 KLMK 291602
RWRKY
KENTUCKY REGIONAL WEATHER ROUNDUP
NATIONAL WEATHER SERVICE LOUISVILLE KY
1200 PM EDT WED JUL 29 2015

NOTE "FAIR" INDICATES FEW OR NO CLOUDS BELOW 12,000 FEET
WITH NO SIGNIFICANT WEATHER AND/OR OBSTRUCTIONS TO VISIBILITY.

KYZ001>023-026-027-061>063-070>075-291700-
WESTERN AND SOUTH CENTRAL KENTUCKY

CITY           SKY/WX    TMP DP  RH WIND       PRES   REMARKS
PADUCAH        SUNNY     92  78  63 NW6       30.01S HX 107
HENDERSON      PTSUNNY   86  75  70 W5        29.99S HX  95
OWENSBORO      MOSUNNY   90  77  65 W6        30.01R HX 103
HOPKINSVILLE   CLOUDY    74  72  92 SW3       30.03F
BOWLING GREEN  SUNNY     88  73  61 W5        30.03S HX  95
GLASGOW        NOT AVBL
$$

KYZ024-025-028>034-038-045-046-053-291700-
NORTH CENTRAL KENTUCKY

CITY           SKY/WX    TMP DP  RH WIND       PRES   REMARKS
LOUISVILLE/SDF PTSUNNY   88  75  65 CALM      29.99S HX  97
LOUISVILLE/LOU MOSUNNY   89  76  65 N6        30.00S HX 100
FORT KNOX      MOSUNNY   85  76  72 CALM      30.00S HX  95
$$

KYZ035>037-039>044-047>052-055>060-089>105-291700-
NORTHEAST KENTUCKY

CITY           SKY/WX    TMP DP  RH WIND       PRES   REMARKS
LEXINGTON      SUNNY     85  77  77 VRB3      30.02F HX  95
COVINGTON      PTSUNNY   88  74  63 VRB6      30.00S HX  96
FRANKFORT      MOSUNNY   86  75  69 VRB3      30.00F HX  95
$$

KYZ054-064>069-076>088-106>120-291700-
SOUTHEAST KENTUCKY

CITY           SKY/WX    TMP DP  RH WIND       PRES   REMARKS
JACKSON        MOSUNNY   82  73  74 CALM      30.06F
LONDON         CLOUDY    78  70  76 S3        30.07S
SOMERSET       NOT AVBL
MIDDLESBORO    MOSUNNY   82  74  74 CALM      30.07S
MONTICELLO     MOSUNNY   85  76  74 CALM      30.07F HX  94
$$




USA.gov is the U.S. government's official web portal to all federal, state and local government web resources and services.